Regional Weather Roundup
Issued by NWS

Home | Current Version | Previous Version | Graphics & Text | Print | Product List | Glossary Off
Versions: 1 2 3 4 5 6 7 8 9 10 11 12 13 14 15 16 17 18 19 20 21 22 23 24 25 26 27 28 29 30 31 32 33 34 35 36 37 38 39 40 41 42 43 44 45 46 47 48 49 50

000
ASUS45 KCYS 280510
RWRWY

WYOMING REGIONAL WEATHER ROUNDUP
NATIONAL WEATHER SERVICE CHEYENNE WY
1100 PM MDT THU AUG 27 2015

NOTE:  "FAIR" INDICATES FEW OR NO CLOUDS BELOW 12,000 FEET
WITH NO SIGNIFICANT WEATHER AND/OR OBSTRUCTIONS TO VISIBILITY.

WYZ001-280600-
YELLOWSTONE NATIONAL PARK

CITY           SKY/WX    TMP DP  RH WIND       PRES   REMARKS
LK YELLOWSTONE   N/A     43  41  93 W3        30.44S
W YELLOWSTONE  NOT AVBL

$$
WYZ002>013-054>058-071-098>099-280600-
NORTHERN WYOMING

CITY           SKY/WX    TMP DP  RH WIND       PRES   REMARKS
JACKSON        FAIR      55  46  71 N13       30.33R
CODY           FAIR      66  43  42 W7        30.19S
GREYBULL       FAIR      68  49  50 SE14      30.16R
WORLAND        FAIR      60  55  83 S9        30.17F HAZE
SHERIDAN       FAIR      74  41  30 W14       30.08S
BUFFALO        FAIR      67  45  45 W8        30.16R
GILLETTE       FAIR      68  46  45 W13       30.09R
HULETT         FAIR      63  54  72 S8        30.08S
NEWCASTLE      FAIR      64  50  59 SE7       30.08F

$$
WYZ014>020-022>026-101>103-280600-
CENTRAL WYOMING

CITY           SKY/WX    TMP DP  RH WIND       PRES   REMARKS
BIG PINEY      FAIR      49  40  71 VRB3      30.37R
PINEDALE       FAIR      54  43  66 CALM      30.37S
DUBOIS         FAIR      48  45  87 W7        30.41S
LANDER         LGT RAIN  59  51  75 NE6       30.30F
RIVERTON       LGT RAIN  59  52  77 MISG      30.27F
CASPER         CLOUDY    65  44  46 NW15G25   30.22R HAZE
DOUGLAS        MOCLDY    67  50  54 N5        30.16R

$$
WYZ021-027>030-104>119-280600-
SOUTHERN WYOMING

CITY           SKY/WX    TMP DP  RH WIND       PRES   REMARKS
EVANSTON       FAIR      59  38  45 S6        30.38S
KEMMERER       FAIR      52  37  58 N6        30.40S
FORT BRIDGER   CLEAR     63  34  34 W9        30.40S
ROCK SPRINGS   FAIR      57  45  64 W5        30.35R
DIXON          FAIR      54  44  67 CALM      30.36R
RAWLINS        MOCLDY    60  45  57 N24G31    30.35R
SARATOGA       CLOUDY    57  52  82 CALM      30.35R
LARAMIE        TSTM      53  48  83 N14G28    30.32R
CHEYENNE       FAIR      59  50  72 W7        30.21F
TORRINGTON     FAIR      68  55  63 CALM      30.08S
PINE BLUFFS    MOCLDY    61  50  67 CALM      30.17R

$$


USA.gov is the U.S. government's official web portal to all federal, state and local government web resources and services.